Location: Hines Observatory
(31.5604°N, 83.5172°W)
Time: 18:02:05
(UTC-04:00)

Daily predictions for brighter satellites

Satellite Brightness Start Highest point End
(mag) Time Altitude Azimuth Time Altitude Azimuth Time Altitude Azimuth
METEOR-M 4.2 20:50:00 10° SSE 20:55:22 87° W 21:00:44 10° NNW
Cosmos 494 Rocket 4.0 20:51:42 10° S 20:56:41 56° ESE 21:01:41 10° NNE
FengYun 1-2 T 4.3 20:53:07 10° SSE 20:58:38 85° ENE 21:04:08 10° NNW
Delta 168 3.7 20:56:09 10° SW 20:58:53 25° SSE 21:02:10 10° ESE
Meteor 2-4 Rocket 4.1 20:56:21 10° SSE 21:01:53 48° E 21:07:32 10° NNE
Cosmos 2333 Rocket 4.3 20:57:32 10° SW 21:02:34 33° WNW 21:07:39 10° N
Cosmos 1844 Rocket 4.1 20:59:33 10° NW 21:04:45 39° WSW 21:09:55 10° S
FENGYUN 3A 3.9 21:00:44 10° SSE 21:05:55 53° ENE 21:11:08 10° N
Cosmos 1025 Rocket 3.1 21:01:44 10° S 21:06:08 86° W 21:10:31 10° N
Meteor 1-19 Rocket 4.2 21:02:37 10° S 21:08:15 78° E 21:13:50 10° N
Cosmos 2297 4.1 21:02:48 10° N 21:08:20 48° ENE 21:13:50 10° SE
Cosmos 2228 4.5 21:05:15 10° NNE 21:08:36 21° ENE 21:11:50 10° SE
BREEZE-M R/B 4.0 21:06:34 10° WNW 21:09:30 36° SW 21:14:33 10° SSE
Resurs 01 Rocket 3.7 21:09:06 10° SSW 21:12:54 27° W 21:16:42 10° NW
H-2A R/B 2.9 21:12:41 10° SSE 21:16:33 63° ENE 21:20:29 10° N
Okean 2 3.5 21:13:37 10° S 21:17:42 55° E 21:21:48 10° NNE
Cosmos 1892 Rocket 3.6 21:14:06 10° S 21:18:32 88° E 21:23:00 10° N
GEOS 3 Rocket 4.1 21:14:25 11° SE 21:19:21 49° NE 21:24:23 10° NNW
Meteor 2-17 Rocket 4.5 21:16:13 10° N 21:22:24 83° E 21:28:33 10° S
Aureole 2 Rocket 2.6 21:19:08 10° SSW 21:23:12 78° ESE 21:26:56 10° NNE
SeaSat 1 4.3 21:24:37 10° E 21:27:38 16° NE 21:30:39 10° NNE
Cosmos 1331 Rocket 4.0 21:23:27 10° N 21:28:37 67° ENE 21:33:19 12° SSE
USA 186 2.3 21:32:26 10° S 21:35:18 49° W 21:38:00 10° NNW
CZ-2C R/B 0.3 21:36:18 29° SSE 21:37:15 63° ENE 21:39:32 10° N
Cosmos 1302 Rocket 4.4 21:34:29 10° N 21:39:33 47° ENE 21:42:59 20° SE
ATLAS 5 CENTAUR R/B 2.6 21:39:11 10° SSW 21:41:18 16° SSE 21:41:36 16° SSE
DEBRIS 4.3 21:40:22 10° NW 21:44:06 21° NNE 21:45:47 13° ENE
Cosmos 1726 Rocket 4.1 21:42:05 10° NNW 21:46:26 59° W 21:50:45 10° S
Cosmos 2278 Rocket 3.7 21:42:00 10° NW 21:47:04 34° WSW 21:52:07 10° SSW
ATLAS 3B R/B 3.5 21:40:27 10° S 21:47:11 34° ESE 21:53:52 10° NE
SJ-11-01 4.2 21:44:22 17° SSE 21:47:57 72° ENE 21:52:36 10° N
Cosmos 1461 3.9 21:44:19 10° N 21:48:06 31° ENE 21:49:44 23° E
Tsikada Rocket 4.1 21:43:07 10° SSE 21:49:21 57° E 21:55:35 10° NNE
Fermi 4.5 21:49:35 10° WSW 21:53:21 35° S 21:54:23 30° SE
deb Centaur AC-2 4.5 21:51:16 10° WSW 21:56:13 73° S 22:00:39 19° E
Cosmos 2369 Rocket 4.0 21:56:25 10° NNE 21:59:44 16° ENE 22:01:39 13° E
ERS-1 Rocket 3.1 21:57:02 15° S 22:01:09 74° WSW 22:06:10 10° NNW
Cosmos 1602 Rocket 3.6 21:56:45 10° S 22:01:13 88° W 22:05:43 10° N
SL-16 R/B 4.5 21:57:51 10° WSW 22:02:31 26° WNW 22:07:13 10° N
Cosmos 2058 Rocket 3.9 21:58:37 10° NNW 22:02:49 49° W 22:06:45 12° SSW
Cosmos 1666 2.7 22:00:02 10° N 22:03:56 80° W 22:05:58 27° S
APEX 3.8 21:59:41 10° NNW 22:04:10 84° ENE 22:07:16 27° SSE
Atlas Centaur 2 2.9 21:57:46 10° WSW 22:05:06 75° S 22:12:42 14° E
Cosmos 2285 Rocket 4.2 21:59:01 10° NNW 22:05:19 71° WSW 22:10:15 17° S
Abrixas rocket 2.7 22:02:10 10° NW 22:05:31 53° NE 22:06:15 43° E
Envisat 3.0 22:05:31 30° SSE 22:07:59 64° ENE 22:13:01 10° N
Meteor 1-15 Rocket 4.3 22:03:20 10° N 22:08:56 77° W 22:13:13 18° S
Cosmos 407 Rocket 4.5 22:11:19 28° E 22:11:19 28° E 22:15:33 10° NE
Cosmos 1464 Rocket 4.4 22:07:39 10° NNW 22:13:41 62° W 22:19:21 12° S
ISS -1.5 22:10:54 10° WSW 22:13:54 33° NW 22:16:54 10° NNE
CZ-3C R/B 3.5 22:10:32 10° WSW 22:16:14 19° SSW 22:16:41 18° S
Cosmos 1812 Rocket 3.6 22:12:54 10° N 22:17:14 60° E 22:18:12 47° SE
Cosmos 1939 Rocket 3.1 22:16:38 33° S 22:18:23 71° WSW 22:22:32 10° NNW
Cosmos 1816 Rocket 4.4 22:18:50 18° S 22:23:45 85° E 22:30:07 10° N
CZ-4 R/B 4.2 22:19:03 10° NNE 22:23:50 44° E 22:24:20 43° ESE
H-2A R/B 3.1 22:22:24 21° SSW 22:24:47 41° W 22:28:52 10° NNW
SPOT 5 2.5 22:24:58 49° SSE 22:26:10 86° ENE 22:30:31 10° NNW
COSMOS 2455 3.3 22:22:18 10° SW 22:28:13 63° WNW 22:34:11 10° NNE
Cosmos 1515 3.5 22:28:51 75° SSE 22:29:08 84° E 22:33:00 10° N
CZ-4 SHROUD 3.7 22:31:44 57° W 22:31:44 57° W 22:34:40 10° NNW
Cosmos 1066 Rocket 4.2 22:30:02 43° SSE 22:31:40 60° E 22:37:20 10° NNE
Cosmos 2034 Rocket 4.5 22:26:46 10° NNW 22:32:59 59° W 22:37:26 20° SSW
Cosmos 1634 Rocket 4.3 22:27:28 10° N 22:33:23 47° E 22:34:40 41° ESE
BREEZE-M DEB (TANK) 3.9 22:34:23 10° NW 22:35:26 26° NW 22:35:26 26° NW
USA 81 4.2 22:31:58 10° N 22:37:08 53° E 22:37:42 51° ESE
YAOGAN 6 3.1 22:39:45 51° NNE 22:39:45 51° NNE 22:42:48 10° N
Terra 3.6 22:43:54 19° ENE 22:43:54 19° ENE 22:46:40 10° NNE
Cosmos 489 Rocket 4.5 22:42:05 46° SSE 22:43:46 61° ESE 22:50:02 10° NNE
Cosmos 1346 Rocket 3.7 22:48:51 39° NNE 22:48:51 39° NNE 22:51:28 10° NNE
Meteor 2-12 Rocket 4.4 22:41:30 10° N 22:47:36 85° W 22:49:33 46° S
Cosmos 1992 Rocket 3.9 22:45:01 10° N 22:50:11 64° ENE 22:50:30 63° E
Cosmos 1953 Rocket 3.7 22:52:36 64° NE 22:52:36 64° NE 22:56:27 10° N
Cosmos 1943 3.5 22:50:37 18° SSW 22:54:49 66° WNW 23:00:28 10° NNE
MetOp-A 4.4 22:55:39 49° SSW 22:56:55 64° WSW 23:02:15 10° NNW
H-2A R/B 3.2 22:57:40 29° ENE 22:57:40 29° ENE 23:01:24 10° N
Cosmos 2346 Rocket 4.5 22:56:16 40° SSW 22:58:40 78° W 23:04:51 10° N
Lacrosse 4 Rocket 2.1 23:03:03 47° N 23:03:03 47° N 23:06:07 10° NNE
Meteor 1-21 4.2 23:03:33 67° E 23:03:37 67° E 23:09:22 10° NNE
SeaSat 1 2.8 23:04:20 53° SW 23:04:43 55° WSW 23:09:33 10° NW
Cosmos 1943 Rocket 3.8 23:00:43 10° NNE 23:04:49 21° ENE 23:04:49 21° ENE
Cosmos 1190 Rocket 4.4 23:03:10 39° SW 23:04:58 63° WNW 23:10:16 10° N
SPOT 1/Viking Rocket 3.5 23:05:20 71° SW 23:05:43 75° WSW 23:10:53 10° NNW
Geosat 3.9 23:01:14 10° NNE 23:06:17 85° WNW 23:06:36 78° SW
Cosmos 1900 4.4 23:07:02 69° WSW 23:07:32 77° WNW 23:12:42 10° NNE
Milstar 3 Cent rocket 4.1 23:13:51 10° WSW 23:16:22 17° SW 23:16:22 17° SW
Cosmos 676 Rocket 4.1 23:21:48 75° NW 23:21:48 75° NW 23:26:56 10° NNE
ARGOS 3.7 23:33:16 51° W 23:33:16 51° W 23:38:30 10° NNW
ATLAS 3B R/B 3.9 23:30:26 10° SW 23:37:44 45° NW 23:44:58 10° NNE
Cosmos 2369 Rocket 2.6 23:38:36 10° NNW 23:43:27 55° WNW 23:43:27 55° WNW
USA 234 3.2 23:48:30 78° WSW 23:48:30 78° WSW 23:54:58 10° NW
